DW7355 Weather Reports


time (UTC)temp
F
wind
direction
speed
knots
gust
knots
rain 1hr
in
rain 24hr
in
rain mn
in
humidity
%
barometer
mb
20260505041600 56 197 0.9 6.1 0.00 0.00 0.00 65 1010.3
20260505040051 56 218 1.7 5.2 0.00 0.00 0.00 64 1010.5
20260505034550 57 243 0.9 6.1 0.00 0.00 0.00 63 1010.2
20260505033050 57 329 0.9 4.3 0.00 0.00 0.00 61 1010.2
20260505031605 57 136 1.7 7.8 0.00 0.00 0.00 60 1010.2
20260505030049 58 295 0.9 6.1 0.00 0.00 0.00 59 1010.2
20260505024549 58 238 0.9 7.8 0.00 0.00 0.00 57 1010.2
20260505023054 58 217 2.6 7.8 0.00 0.00 0.00 56 1010.4
20260505021546 59 214 1.7 4.3 0.00 0.00 0.00 54 1010.4
20260505020045 59 229 1.7 6.1 0.00 0.00 0.00 53 1010.3
20260505014545 60 205 2.6 9.6 0.00 0.00 0.00 51 1010.1
20260505013052 60 233 1.7 8.7 0.00 0.00 0.00 50 1010.0
20260505011545 61 297 1.7 7.0 0.00 0.00 0.00 49 1009.8
20260505010045 61 186 1.7 10.4 0.00 0.00 0.00 48 1009.5
20260505004549 62 257 1.7 9.6 0.00 0.00 0.00 46 1009.2
20260505003043 63 191 3.5 12.2 0.00 0.00 0.00 46 1008.9
20260505001542 63 187 3.5 8.7 0.00 0.00 0.00 45 1008.3
20260505000057 64 283 2.6 7.0 0.00 0.00 0.00 45 1008.0
20260504234541 65 15 3.5 9.6 0.00 0.00 0.00 44 1007.8
20260504233040 65 214 3.5 9.6 0.00 0.00 0.00 43 1007.6
20260504231541 66 340 1.7 13.9 0.00 0.00 0.00 42 1007.3
20260504230048 68 143 1.7 9.6 0.00 0.00 0.00 39 1006.9
20260504224537 69 281 3.5 8.7 0.00 0.00 0.00 37 1006.6
20260504223036 69 208 3.5 12.2 0.00 0.00 0.00 36 1006.5
20260504221549 70 295 2.6 11.3 0.00 0.00 0.00 33 1006.4
20260504220034 72 232 2.6 8.7 0.00 0.00 0.00 30 1006.4
20260504214535 72 150 3.5 9.6 0.00 0.00 0.00 29 1006.4
20260504213041 72 156 4.3 11.3 0.00 0.00 0.00 29 1006.4
20260504211532 73 298 5.2 12.2 0.00 0.00 0.00 28 1006.2
20260504210032 72 289 2.6 13.0 0.00 0.00 0.00 28 1006.3
20260504204539 72 295 4.3 10.4 0.00 0.00 0.00 28 1006.3
20260504203031 73 290 3.5 12.2 0.00 0.00 0.00 28 1006.5
20260504201530 73 263 3.5 13.0 0.00 0.00 0.00 27 1006.4
20260504200027 73 275 3.5 9.6 0.00 0.00 0.00 26 1006.5
20260504194527 73 301 4.3 14.8 0.00 0.00 0.00 25 1006.5
20260504193025 72 264 4.3 13.0 0.00 0.00 0.00 25 1006.6
20260504191525 73 309 2.6 9.6 0.00 0.00 0.00 25 1006.6
20260504190024 72 294 7.0 13.9 0.00 0.00 0.00 25 1006.7
20260504184521 72 293 3.5 18.2 0.00 0.00 0.00 25 1006.8
20260504183020 72 211 3.5 10.4 0.00 0.00 0.00 26 1006.8
20260504181517 71 270 5.2 13.0 0.00 0.00 0.00 26 1007.0
20260504180015 71 303 3.5 13.0 0.00 0.00 0.00 27 1007.1
20260504174514 71 280 5.2 9.6 0.00 0.00 0.00 26 1007.4
20260504173011 70 215 4.3 17.4 0.00 0.00 0.00 27 1007.5
20260504171509 70 281 2.6 14.8 0.00 0.00 0.00 28 1007.3
20260504160107 67 266 4.3 14.8 0.00 0.00 0.00 30 1008.3
20260504081532 47 214 0.0 1.7 0.00 0.00 0.00 55 1010.4
20260504050012 42 259 0.0 2.6 0.00 0.00 0.00 63 1010.3